DAL37 KSFO-KSAN

Flight info

Callsign DAL37
Flight time 1h 5m
Altitude 39000
Route WESLA5 KTINA CISKO FLW LAX COMIX2
Aircraft MD11/H-SDE1E2E3FGHIJ2J3J4J5M1RWXY/LB1D1

Departure

Time 2026-04-26 05:46
Airport San Francisco International Airport (KSFO)

Arrival

Time 2026-04-26 06:51
Airport San Diego International Airport (KSAN)
Time Latitude Longitude Altitude Speed Heading
2026-04-26 05:23 37.61997 -122.38387 29 ft 0 kts 216°
2026-04-26 05:33 37.61998 -122.38385 28 ft 2 kts 216°
2026-04-26 05:33 37.62013 -122.38372 29 ft 3 kts 216°
2026-04-26 05:33 37.62028 -122.38359 28 ft 3 kts 216°
2026-04-26 05:34 37.62043 -122.38345 28 ft 3 kts 216°
2026-04-26 05:34 37.62058 -122.38331 30 ft 3 kts 216°
2026-04-26 05:34 37.62059 -122.38331 30 ft 0 kts 216°
2026-04-26 05:38 37.62058 -122.38331 30 ft 0 kts 210°
2026-04-26 05:38 37.62048 -122.38328 28 ft 3 kts 173°
2026-04-26 05:39 37.62025 -122.38303 30 ft 7 kts 132°
2026-04-26 05:39 37.61983 -122.38239 31 ft 8 kts 121°
2026-04-26 05:39 37.61948 -122.38161 28 ft 12 kts 120°
2026-04-26 05:39 37.61907 -122.38068 29 ft 12 kts 119°
2026-04-26 05:40 37.61865 -122.37973 27 ft 13 kts 118°
2026-04-26 05:40 37.61824 -122.37866 29 ft 14 kts 112°
2026-04-26 05:40 37.61787 -122.37744 27 ft 15 kts 111°
2026-04-26 05:40 37.61753 -122.37629 27 ft 13 kts 110°
2026-04-26 05:41 37.61718 -122.37518 27 ft 14 kts 113°
2026-04-26 05:41 37.61677 -122.37401 29 ft 15 kts 114°
2026-04-26 05:41 37.61633 -122.37289 31 ft 14 kts 117°
2026-04-26 05:41 37.61583 -122.37172 30 ft 16 kts 118°
2026-04-26 05:42 37.61526 -122.37039 30 ft 18 kts 118°
2026-04-26 05:42 37.61452 -122.36911 29 ft 19 kts 128°
2026-04-26 05:42 37.61368 -122.36769 30 ft 21 kts 121°
2026-04-26 05:42 37.61295 -122.36604 27 ft 23 kts 117°
2026-04-26 05:43 37.61221 -122.36422 27 ft 23 kts 117°
2026-04-26 05:43 37.61148 -122.36245 29 ft 22 kts 118°
2026-04-26 05:43 37.61080 -122.36089 26 ft 16 kts 117°
2026-04-26 05:43 37.61070 -122.35967 26 ft 13 kts 66°
2026-04-26 05:44 37.61074 -122.35958 26 ft 0 kts 62°
2026-04-26 05:44 37.61076 -122.35954 26 ft 1 kts 62°
2026-04-26 05:44 37.61084 -122.35938 31 ft 3 kts 57°
2026-04-26 05:44 37.61102 -122.35913 30 ft 5 kts 43°
2026-04-26 05:45 37.61137 -122.35888 26 ft 7 kts 21°
2026-04-26 05:45 37.61175 -122.35892 27 ft 5 kts 333°
2026-04-26 05:45 37.61241 -122.36021 27 ft 53 kts 298°
2026-04-26 05:45 37.61597 -122.36876 32 ft 161 kts 296°
2026-04-26 05:46 37.62200 -122.38270 681 ft 190 kts 297°
2026-04-26 05:46 37.62893 -122.39684 2010 ft 189 kts 301°
2026-04-26 05:46 37.63538 -122.40993 3723 ft 165 kts 295°
2026-04-26 05:46 37.64128 -122.42422 4476 ft 210 kts 294°
2026-04-26 05:47 37.64848 -122.44188 5154 ft 230 kts 295°
2026-04-26 05:47 37.65598 -122.45987 6314 ft 234 kts 296°
2026-04-26 05:47 37.66353 -122.47845 7281 ft 241 kts 293°
2026-04-26 05:47 37.66774 -122.49984 7820 ft 268 kts 269°
2026-04-26 05:48 37.66254 -122.52209 8833 ft 277 kts 240°
2026-04-26 05:48 37.64828 -122.53893 9836 ft 290 kts 208°
2026-04-26 05:48 37.62813 -122.54559 10327 ft 320 kts 183°
2026-04-26 05:48 37.60484 -122.54138 10486 ft 356 kts 161°
2026-04-26 05:49 37.58184 -122.52851 11306 ft 365 kts 153°
2026-04-26 05:49 37.53538 -122.49962 13366 ft 377 kts 154°
2026-04-26 05:49 37.51115 -122.48600 14341 ft 383 kts 155°
2026-04-26 05:50 37.48684 -122.47180 15155 ft 388 kts 147°
2026-04-26 05:50 37.46494 -122.45159 16049 ft 392 kts 137°
2026-04-26 05:50 37.44480 -122.42820 16952 ft 397 kts 133°
2026-04-26 05:50 37.42509 -122.40346 17867 ft 402 kts 131°
2026-04-26 05:51 37.40532 -122.37830 18719 ft 408 kts 131°
2026-04-26 05:51 37.38515 -122.35285 19530 ft 412 kts 132°
2026-04-26 05:51 37.36468 -122.32737 20364 ft 416 kts 133°
2026-04-26 05:51 37.34419 -122.30214 21133 ft 421 kts 133°
2026-04-26 05:52 37.32304 -122.27630 21904 ft 425 kts 134°
2026-04-26 05:52 37.30171 -122.25035 22666 ft 430 kts 134°
2026-04-26 05:52 37.28002 -122.22403 23420 ft 436 kts 134°
2026-04-26 05:52 37.25797 -122.19730 23967 ft 443 kts 134°
2026-04-26 05:53 37.23572 -122.17035 24630 ft 446 kts 134°
2026-04-26 05:53 37.21331 -122.14324 25293 ft 450 kts 134°
2026-04-26 05:53 37.19065 -122.11585 25946 ft 454 kts 134°
2026-04-26 05:53 37.16787 -122.08832 26602 ft 457 kts 134°
2026-04-26 05:54 37.14488 -122.06056 27249 ft 461 kts 134°
2026-04-26 05:54 37.12165 -122.03254 27851 ft 465 kts 134°
2026-04-26 05:54 37.09822 -122.00431 28453 ft 469 kts 134°
2026-04-26 05:54 37.07455 -121.97581 29046 ft 473 kts 134°
2026-04-26 05:55 37.05072 -121.94715 29629 ft 477 kts 134°
2026-04-26 05:55 37.02664 -121.91821 30167 ft 481 kts 135°
2026-04-26 05:55 37.00242 -121.88913 30772 ft 481 kts 135°
2026-04-26 05:55 36.97864 -121.86061 31461 ft 480 kts 135°
2026-04-26 05:56 36.95454 -121.83174 32094 ft 480 kts 136°
2026-04-26 05:56 36.93051 -121.80297 32741 ft 479 kts 136°
2026-04-26 05:56 36.90647 -121.77420 33471 ft 476 kts 137°
2026-04-26 05:56 36.88265 -121.74575 34100 ft 474 kts 137°
2026-04-26 05:57 36.85873 -121.71736 34559 ft 474 kts 138°
2026-04-26 05:57 36.83474 -121.68895 34980 ft 475 kts 138°
2026-04-26 05:57 36.81077 -121.66053 35350 ft 477 kts 138°
2026-04-26 05:57 36.78665 -121.63190 35732 ft 478 kts 139°
2026-04-26 05:58 36.76249 -121.60319 36135 ft 479 kts 139°
2026-04-26 05:58 36.73842 -121.57460 36540 ft 479 kts 139°
2026-04-26 05:58 36.71424 -121.54587 36942 ft 480 kts 139°
2026-04-26 05:58 36.69002 -121.51713 37328 ft 480 kts 140°
2026-04-26 05:59 36.66589 -121.48853 37735 ft 480 kts 140°
2026-04-26 05:59 36.64167 -121.45983 38133 ft 480 kts 140°
2026-04-26 05:59 36.61749 -121.43122 38543 ft 479 kts 140°
2026-04-26 05:59 36.59328 -121.40261 38836 ft 480 kts 140°
2026-04-26 06:00 36.56893 -121.37387 38910 ft 486 kts 140°
2026-04-26 06:00 36.52783 -121.32543 38937 ft 490 kts 140°
2026-04-26 06:01 36.47841 -121.26719 38942 ft 489 kts 140°
2026-04-26 06:01 36.42810 -121.21023 38942 ft 487 kts 143°
2026-04-26 06:02 36.37621 -121.15651 38940 ft 485 kts 144°
2026-04-26 06:02 36.32440 -121.10364 38938 ft 485 kts 144°
2026-04-26 06:03 36.27233 -121.05021 38938 ft 486 kts 144°
2026-04-26 06:03 36.22035 -120.99672 38938 ft 486 kts 144°
2026-04-26 06:04 36.16840 -120.94332 38936 ft 485 kts 144°
2026-04-26 06:04 36.11640 -120.88998 38943 ft 485 kts 144°
2026-04-26 06:05 36.06441 -120.83676 38944 ft 485 kts 144°
2026-04-26 06:05 36.01244 -120.78365 38930 ft 485 kts 145°
2026-04-26 06:06 35.96041 -120.73059 38944 ft 486 kts 145°
2026-04-26 06:06 35.90804 -120.67726 38946 ft 486 kts 145°
2026-04-26 06:07 35.85620 -120.62456 38934 ft 486 kts 145°
2026-04-26 06:07 35.80388 -120.57151 38949 ft 487 kts 145°
2026-04-26 06:08 35.75130 -120.51856 38987 ft 488 kts 145°
2026-04-26 06:08 35.69882 -120.46567 38984 ft 487 kts 145°
2026-04-26 06:09 35.64627 -120.41282 38976 ft 488 kts 146°
2026-04-26 06:09 35.59359 -120.35992 38968 ft 488 kts 146°
2026-04-26 06:10 35.54094 -120.30712 38959 ft 488 kts 146°
2026-04-26 06:10 35.48834 -120.25446 38943 ft 489 kts 146°
2026-04-26 06:11 35.43587 -120.20204 38951 ft 489 kts 146°
2026-04-26 06:11 35.38313 -120.14941 38947 ft 489 kts 146°
2026-04-26 06:12 35.33027 -120.09676 38938 ft 489 kts 146°
2026-04-26 06:12 35.27739 -120.04420 38938 ft 489 kts 146°
2026-04-26 06:13 35.22457 -119.99177 38942 ft 489 kts 146°
2026-04-26 06:13 35.17165 -119.93934 38915 ft 489 kts 147°
2026-04-26 06:14 35.11867 -119.88695 38936 ft 489 kts 147°
2026-04-26 06:14 35.06621 -119.83476 38940 ft 491 kts 144°
2026-04-26 06:15 35.01676 -119.77669 38934 ft 494 kts 139°
2026-04-26 06:15 34.96937 -119.71580 38932 ft 495 kts 139°
2026-04-26 06:16 34.92190 -119.65494 38926 ft 495 kts 139°
2026-04-26 06:16 34.87413 -119.59449 38919 ft 495 kts 140°
2026-04-26 06:17 34.82620 -119.53421 38898 ft 495 kts 140°
2026-04-26 06:17 34.77820 -119.47397 38914 ft 496 kts 140°
2026-04-26 06:18 34.73045 -119.41413 38912 ft 496 kts 140°
2026-04-26 06:18 34.68213 -119.35366 38912 ft 495 kts 140°
2026-04-26 06:19 34.63435 -119.29398 38902 ft 496 kts 140°
2026-04-26 06:19 34.58625 -119.23400 38902 ft 495 kts 140°
2026-04-26 06:20 34.53829 -119.17429 38908 ft 493 kts 140°
2026-04-26 06:20 34.49030 -119.11467 38896 ft 494 kts 141°
2026-04-26 06:21 34.44216 -119.05531 38912 ft 496 kts 141°
2026-04-26 06:21 34.39371 -118.99556 38925 ft 496 kts 141°
2026-04-26 06:22 34.34546 -118.93597 38943 ft 496 kts 141°
2026-04-26 06:22 34.29715 -118.87635 38931 ft 496 kts 142°
2026-04-26 06:23 34.24882 -118.81684 38948 ft 496 kts 142°
2026-04-26 06:23 34.20041 -118.75730 38951 ft 496 kts 142°
2026-04-26 06:24 34.15207 -118.69795 38744 ft 491 kts 142°
2026-04-26 06:24 34.12829 -118.66872 38452 ft 486 kts 142°
2026-04-26 06:24 34.10458 -118.63968 38023 ft 485 kts 142°
2026-04-26 06:24 34.08095 -118.61078 37539 ft 484 kts 142°
2026-04-26 06:25 34.05728 -118.58187 37048 ft 483 kts 142°
2026-04-26 06:25 34.03372 -118.55312 36570 ft 483 kts 142°
2026-04-26 06:25 34.01012 -118.52434 36095 ft 482 kts 142°
2026-04-26 06:25 33.98656 -118.49562 35617 ft 482 kts 142°
2026-04-26 06:26 33.96302 -118.46692 35120 ft 481 kts 143°
2026-04-26 06:26 33.93943 -118.43824 34656 ft 483 kts 143°
2026-04-26 06:26 33.91569 -118.40955 34143 ft 484 kts 143°
2026-04-26 06:26 33.89188 -118.38082 33507 ft 483 kts 143°
2026-04-26 06:27 33.86848 -118.35255 32907 ft 482 kts 143°
2026-04-26 06:27 33.84481 -118.32393 32321 ft 483 kts 143°
2026-04-26 06:27 33.82076 -118.29486 31739 ft 484 kts 143°
2026-04-26 06:27 33.79733 -118.26655 31176 ft 485 kts 143°
2026-04-26 06:28 33.77352 -118.23778 30607 ft 486 kts 144°
2026-04-26 06:28 33.74958 -118.20889 30038 ft 488 kts 144°
2026-04-26 06:28 33.72564 -118.18000 29384 ft 488 kts 143°
2026-04-26 06:28 33.70169 -118.15112 28786 ft 490 kts 143°
2026-04-26 06:29 33.67753 -118.12204 28149 ft 490 kts 143°
2026-04-26 06:29 33.65356 -118.09314 27517 ft 486 kts 143°
2026-04-26 06:29 33.62982 -118.06452 26884 ft 481 kts 143°
2026-04-26 06:29 33.60633 -118.03621 26249 ft 475 kts 143°
2026-04-26 06:30 33.58309 -118.00825 25646 ft 470 kts 143°
2026-04-26 06:30 33.56002 -117.98057 25052 ft 465 kts 143°
2026-04-26 06:30 33.53726 -117.95330 24461 ft 461 kts 143°
2026-04-26 06:30 33.51497 -117.92663 23878 ft 457 kts 143°
2026-04-26 06:31 33.49230 -117.89952 23236 ft 452 kts 143°
2026-04-26 06:31 33.47012 -117.87301 22590 ft 448 kts 143°
2026-04-26 06:31 33.44814 -117.84678 21985 ft 444 kts 142°
2026-04-26 06:31 33.42635 -117.82078 21394 ft 440 kts 143°
2026-04-26 06:32 33.40473 -117.79501 20846 ft 440 kts 142°
2026-04-26 06:32 33.38357 -117.76982 20285 ft 437 kts 142°
2026-04-26 06:32 33.36186 -117.74397 19730 ft 434 kts 141°
2026-04-26 06:32 33.34078 -117.71896 19188 ft 431 kts 141°
2026-04-26 06:33 33.31953 -117.69385 18639 ft 428 kts 141°
2026-04-26 06:33 33.29846 -117.66895 18064 ft 425 kts 140°
2026-04-26 06:33 33.27753 -117.64417 17465 ft 421 kts 140°
2026-04-26 06:33 33.25687 -117.61968 16904 ft 416 kts 140°
2026-04-26 06:34 33.23644 -117.59546 16356 ft 412 kts 140°
2026-04-26 06:34 33.21621 -117.57148 15841 ft 408 kts 140°
2026-04-26 06:34 33.19622 -117.54780 15321 ft 404 kts 140°
2026-04-26 06:34 33.17635 -117.52427 14834 ft 399 kts 140°
2026-04-26 06:35 33.15652 -117.50137 14350 ft 393 kts 143°
2026-04-26 06:35 33.13549 -117.48097 13861 ft 387 kts 148°
2026-04-26 06:35 33.11384 -117.46225 13315 ft 382 kts 150°
2026-04-26 06:35 33.09205 -117.44423 12807 ft 380 kts 150°
2026-04-26 06:36 33.07032 -117.42640 12326 ft 377 kts 150°
2026-04-26 06:36 33.04879 -117.40868 11892 ft 375 kts 149°
2026-04-26 06:36 33.02789 -117.39130 11784 ft 354 kts 149°
2026-04-26 06:36 33.00854 -117.37505 11681 ft 328 kts 150°
2026-04-26 06:37 32.99054 -117.35991 11570 ft 305 kts 150°
2026-04-26 06:37 32.97373 -117.34578 11456 ft 286 kts 150°
2026-04-26 06:37 32.95776 -117.33243 11365 ft 282 kts 150°
2026-04-26 06:37 32.94168 -117.31907 11251 ft 280 kts 150°
2026-04-26 06:38 32.92562 -117.30571 11053 ft 281 kts 150°
2026-04-26 06:38 32.90956 -117.29236 10639 ft 282 kts 150°
2026-04-26 06:38 32.89370 -117.27917 10165 ft 282 kts 149°
2026-04-26 06:38 32.87799 -117.26545 9673 ft 280 kts 141°
2026-04-26 06:39 32.86680 -117.24644 9197 ft 284 kts 115°
2026-04-26 06:39 32.86067 -117.22430 8789 ft 280 kts 109°
2026-04-26 06:39 32.85495 -117.20230 8508 ft 278 kts 109°
2026-04-26 06:39 32.84647 -117.18196 8273 ft 274 kts 133°
2026-04-26 06:40 32.83195 -117.16799 7800 ft 269 kts 159°
2026-04-26 06:40 32.81440 -117.16120 7242 ft 264 kts 163°
2026-04-26 06:40 32.79914 -117.14921 6849 ft 266 kts 135°
2026-04-26 06:40 32.79010 -117.13018 6490 ft 266 kts 110°
2026-04-26 06:41 32.78519 -117.10913 6137 ft 264 kts 105°
2026-04-26 06:41 32.78085 -117.08827 6016 ft 254 kts 105°
2026-04-26 06:41 32.77679 -117.06844 6009 ft 243 kts 105°
2026-04-26 06:41 32.77280 -117.04883 5995 ft 243 kts 105°
2026-04-26 06:42 32.76881 -117.02930 5999 ft 243 kts 105°
2026-04-26 06:42 32.76481 -117.00983 6004 ft 242 kts 105°
2026-04-26 06:42 32.76082 -116.99036 6001 ft 241 kts 105°
2026-04-26 06:42 32.75684 -116.97095 5873 ft 244 kts 105°
2026-04-26 06:43 32.75283 -116.95151 5496 ft 246 kts 105°
2026-04-26 06:43 32.74876 -116.93179 5122 ft 245 kts 105°
2026-04-26 06:43 32.74482 -116.91259 4993 ft 232 kts 105°
2026-04-26 06:43 32.73941 -116.89363 5027 ft 260 kts 123°
2026-04-26 06:44 32.72697 -116.87789 4992 ft 263 kts 151°
2026-04-26 06:44 32.71002 -116.87087 4989 ft 259 kts 178°
2026-04-26 06:44 32.69251 -116.87397 4973 ft 257 kts 204°
2026-04-26 06:44 32.67712 -116.88438 4621 ft 251 kts 220°
2026-04-26 06:45 32.66501 -116.89873 4287 ft 242 kts 234°
2026-04-26 06:45 32.65900 -116.90965 4101 ft 236 kts 243°
2026-04-26 06:45 32.65210 -116.93356 3732 ft 226 kts 261°
2026-04-26 06:45 32.65140 -116.94572 3626 ft 217 kts 271°
2026-04-26 06:46 32.65352 -116.96276 3600 ft 206 kts 285°
2026-04-26 06:46 32.65936 -116.97752 3602 ft 187 kts 303°
2026-04-26 06:46 32.66896 -116.99341 3395 ft 176 kts 301°
2026-04-26 06:46 32.67335 -117.00158 3131 ft 172 kts 298°
2026-04-26 06:47 32.67925 -117.01390 2807 ft 171 kts 295°
2026-04-26 06:47 32.68458 -117.02644 2711 ft 170 kts 292°
2026-04-26 06:47 32.68954 -117.03927 2709 ft 171 kts 291°
2026-04-26 06:47 32.69408 -117.05201 2650 ft 163 kts 289°
2026-04-26 06:48 32.69801 -117.06375 2449 ft 147 kts 288°
2026-04-26 06:48 32.70161 -117.07509 2487 ft 149 kts 288°
2026-04-26 06:48 32.70563 -117.08636 2181 ft 147 kts 291°
2026-04-26 06:48 32.70982 -117.09742 1778 ft 146 kts 290°
2026-04-26 06:49 32.71352 -117.10859 1455 ft 145 kts 288°
2026-04-26 06:49 32.71671 -117.12003 1227 ft 145 kts 285°
2026-04-26 06:49 32.71955 -117.13155 1012 ft 146 kts 285°
2026-04-26 06:49 32.72227 -117.14312 777 ft 148 kts 286°
2026-04-26 06:50 32.72519 -117.15456 542 ft 143 kts 286°
2026-04-26 06:50 32.72793 -117.16601 319 ft 145 kts 285°
2026-04-26 06:50 32.73063 -117.17758 61 ft 146 kts 285°
2026-04-26 06:50 32.73294 -117.18732 21 ft 92 kts 286°
2026-04-26 06:51 32.73419 -117.19229 27 ft 38 kts 287°
2026-04-26 06:51 32.73421 -117.19493 31 ft 4 kts 245°
2026-04-26 06:51 32.73412 -117.19519 31 ft 3 kts 245°
2026-04-26 06:52 32.73404 -117.19539 31 ft 2 kts 245°
2026-04-26 06:52 32.73397 -117.19554 31 ft 2 kts 239°
2026-04-26 06:52 32.73395 -117.19562 31 ft 1 kts 253°
2026-04-26 06:52 32.73402 -117.19611 30 ft 15 kts 281°
2026-04-26 06:53 32.73425 -117.19732 30 ft 12 kts 284°
2026-04-26 06:53 32.73447 -117.19819 30 ft 9 kts 294°
2026-04-26 06:53 32.73465 -117.19884 31 ft 8 kts 288°
2026-04-26 06:53 32.73485 -117.19956 31 ft 10 kts 288°
2026-04-26 06:54 32.73507 -117.20034 30 ft 6 kts 288°
2026-04-26 06:54 32.73511 -117.20081 30 ft 5 kts 259°
2026-04-26 06:54 32.73493 -117.20119 30 ft 4 kts 226°
2026-04-26 06:54 32.73481 -117.20124 29 ft 2 kts 197°
2026-04-26 06:55 32.73462 -117.20125 29 ft 4 kts 185°
2026-04-26 06:55 32.73438 -117.20124 29 ft 2 kts 167°
2026-04-26 06:55 32.73425 -117.20120 28 ft 0 kts 167°